RH
51 56 57 54 43 40 40 33 33 34 35 40 47 54 54 50 42 36 33 30 31 33 34 34 34 33 29 26 25 25 25 22 21 20 19 19 18 18 19 20 22 20 21 20
54 52 52 47 38 33 34 33 34 36 37 36 36 34 33 33 33 33 33 33 31 29 27 26 27 27 27 28 26 24 24 25 24 21 18 15 12 15 14 14 15 16 17 18
42 36 34 32 29 31 38 42 44 47 49 50 49 47 44 41 40 41 46 49 47 41 33 30 31 27 23 20 20 19 18 19 16 14 12 9 8 9 11 12 12 10 10 11
33 36 38 38 38 47 54 57 56 55 54 49 48 48 51 55 58 62 60 46 35 28 25 19 16 17 17 17 16 13 11 10 11 9 8 8 9 10 8 10 11 10 9 8
58 62 63 60 64 65 75 52 34 30 28 28 41 49 37 26 24 25 19 20 20 23 25 22 21 19 15 14 14 10 6 6 6 4 5 5 6 6 6 6 7 8 8 6
37 38 48 50 50 47 38 34 38 40 40 36 31 30 27 27 30 29 25 21 20 18 19 16 15 12 10 9 7 7 6 6 5 5 5 4 4 4 5 6 6 6 7 6
29 37 38 46 47 59 58 58 52 46 45 43 32 40 40 35 39 35 24 21 17 15 13 14 12 9 7 6 6 5 5 5 4 4 4 4 4 3 4 4 5 5 5 5
25 24 26 29 36 48 60 71 73 66 62 57 37 46 34 24 23 21 17 13 11 11 10 7 5 5 4 4 4 4 4 4 4 4 3 3 4 4 4 4 3 4 4 4
24 29 35 34 38 43 48 56 47 36 28 24 23 36 43 45 40 23 15 12 13 11 7 5 4 4 4 4 4 4 4 4 4 4 4 4 4 4 4 4 3 3 3 3
28 29 40 57 62 51 51 35 29 27 26 23 21 30 39 32 18 16 16 16 12 8 5 5 4 4 4 4 4 4 4 4 4 4 4 4 4 4 4 3 4 4 4 4
37 44 47 50 50 43 38 44 42 34 44 45 27 57 55 33 21 18 16 11 7 5 5 4 4 4 4 4 4 4 4 3 3 4 4 4 4 4 4 4 4 4 5 5
35 51 55 65 66 42 61 63 54 50 47 62 61 47 41 26 23 16 11 7 5 5 4 4 4 3 3 4 4 4 3 3 3 4 4 4 4 4 4 5 5 5 5 6
52 52 66 94 58 78 75 79 66 82 77 65 46 40 27 20 16 10 6 5 4 4 3 3 3 3 4 4 4 4 4 4 4 4 4 4 4 4 5 5 5 5 6 6
57 59 61 98 72 80 87 71 100 79 58 51 48 23 20 16 11 6 5 4 4 3 4 3 3 4 4 4 5 4 4 4 5 5 5 5 5 5 6 6 6 6 7 7
57 74 80 71 83 84 76 62 82 81 70 49 42 29 19 11 6 4 4 4 4 4 4 3 4 4 5 6 6 5 6 6 5 6 7 7 6 6 8 9 8 9 10 10
56 69 83 77 80 89 66 82 83 76 60 40 28 20 15 8 4 4 5 5 4 6 5 5 5 6 6 7 6 6 7 7 6 8 9 9 8 11 12 11 11 12 12 14
46 84 68 70 91 91 84 98 100 90 50 28 19 15 7 5 4 4 6 6 5 5 6 6 6 7 8 8 7 8 9 9 8 9 14 11 14 15 14 16 16 26 39 47
61 81 66 70 97 98 96 100 96 54 36 23 18 13 6 5 4 5 7 6 6 6 6 7 8 9 8 8 9 9 10 10 9 15 16 15 16 24 27 43 58 74 71 73
60 93 81 77 84 100 94 88 77 35 26 18 10 7 5 5 4 7 6 6 6 6 6 8 8 9 9 11 11 12 12 12 14 19 18 23 45 64 76 67 67 77 78 78
53 100 64 64 76 100 84 67 59 31 24 16 9 5 5 5 6 6 6 6 7 8 8 8 10 10 11 12 12 13 14 14 20 21 53 74 68 51 73 73 79 70 88 100
52 100 67 79 100 89 68 66 43 21 14 11 8 6 6 7 7 6 6 8 10 9 9 10 11 12 13 13 13 15 15 18 24 35 73 65 52 72 63 70 100 100 100 100
72 94 71 86 92 74 40 61 34 17 15 10 7 6 6 8 7 7 8 10 10 11 12 12 12 13 14 14 15 16 15 20 28 68 69 70 82 88 92 100 100 100 100 100
78 96 68 100 71 62 51 48 26 17 11 11 7 6 8 8 7 9 12 13 12 13 13 12 13 14 14 14 16 16 16 19 27 72 83 91 100 100 100 100 100 100 100 100
81 100 80 98 76 73 42 29 16 16 12 9 7 7 9 7 9 14 13 12 12 12 12 13 14 14 14 16 16 16 18 23 32 88 93 100 100 100 100 100 100 100 100 100
92 100 86 91 77 63 44 30 16 16 16 8 7 9 8 8 14 16 14 14 14 13 12 13 13 14 14 17 17 17 22 39 43 100 100 100 100 100 100 97 83 100 100 100
100 94 100 89 80 48 32 29 19 14 12 8 8 10 9 13 17 16 16 16 15 14 14 14 14 14 16 17 17 18 46 37 97 100 100 100 100 100 100 94 100 100 100 100
Wind_Speed
46 47 49 50 48 47 48 49 52 57 60 59 65 68 72 75 80 83 87 92 95 99 104 108 110 113 116 117 118 119 121 120 121 122 122 122 119 114 113 114 113 110 108 101
43 44 46 47 46 46 52 57 61 62 66 69 71 74 79 82 87 93 96 99 102 106 110 115 118 121 121 123 126 125 126 128 131 129 128 125 116 116 112 111 111 112 110 109
39 41 43 46 50 53 55 62 66 69 70 78 82 79 88 92 96 101 106 109 113 116 119 123 126 129 133 136 136 132 132 138 138 134 129 120 114 109 112 111 111 105 103 103
41 46 48 49 50 52 54 60 67 72 76 78 89 84 94 106 109 115 117 119 121 125 128 130 131 129 130 130 136 131 122 121 123 120 117 111 113 112 106 108 108 108 106 104
45 48 50 52 52 53 59 65 71 76 81 85 91 98 103 111 117 122 125 127 131 135 138 141 141 137 130 123 124 124 115 110 108 100 96 96 99 101 101 101 101 103 104 103
51 52 53 51 54 58 63 67 73 82 89 93 99 104 108 108 114 122 129 135 140 145 146 144 129 126 127 121 116 112 110 104 99 96 96 93 93 91 93 96 99 100 102 103
43 48 53 60 64 72 74 77 83 84 92 95 97 96 104 114 119 126 132 136 140 135 126 116 113 115 114 112 111 104 99 95 93 89 86 84 83 81 82 86 90 92 94 99
52 51 56 63 67 74 81 87 94 100 101 104 94 95 103 114 124 131 134 134 126 116 109 109 108 103 97 93 91 88 86 86 84 81 80 78 76 76 75 75 77 81 82 86
59 60 62 63 67 73 81 90 97 102 98 102 98 90 102 114 121 127 128 127 119 113 108 105 100 94 86 81 78 74 72 71 69 70 69 67 65 64 63 64 65 68 71 73
69 68 69 70 76 83 91 87 93 94 97 98 95 101 113 118 122 123 119 115 107 99 95 89 82 80 77 72 68 63 60 59 59 58 55 55 54 52 53 54 53 54 56 56
84 79 82 84 92 92 93 102 107 101 101 108 111 108 119 121 121 122 116 109 97 88 77 70 69 65 61 57 54 51 49 48 48 44 43 42 40 40 42 43 42 43 42 44
88 85 92 98 103 96 105 109 105 106 108 111 116 117 124 120 118 115 108 99 87 77 68 63 59 56 53 49 45 39 38 37 35 32 32 30 28 30 30 30 31 32 33 33
95 94 99 101 113 106 106 110 107 109 115 121 125 124 123 113 109 102 94 84 75 70 63 60 54 50 47 44 39 32 29 29 26 25 23 21 18 17 20 22 25 26 26 26
97 100 103 107 117 115 107 105 100 113 122 125 126 119 120 107 101 93 79 72 69 64 59 55 50 45 42 37 34 30 26 23 19 17 16 12 12 13 16 18 22 24 23 24
100 106 105 115 119 114 111 115 107 116 123 127 126 121 113 105 90 79 72 70 65 59 55 49 44 40 35 31 26 24 21 17 12 9 7 10 14 18 20 24 27 29 30 28
105 105 112 117 124 116 120 113 116 128 131 127 121 110 106 93 82 73 72 67 60 55 51 45 39 33 28 23 21 17 12 7 8 10 13 17 24 29 31 35 37 39 37 36
111 103 121 119 116 119 116 115 122 129 136 123 114 107 91 82 77 71 68 62 54 51 45 38 32 26 21 18 14 6 3 7 13 20 23 28 39 44 45 47 47 49 50 51
114 112 126 130 119 113 115 117 127 132 135 123 111 103 91 79 72 68 63 57 51 44 38 31 25 18 16 11 4 3 8 14 23 31 37 45 52 56 56 58 61 62 62 62
117 119 128 131 128 115 121 121 131 130 125 110 93 85 83 77 70 63 56 48 42 37 31 24 17 11 8 3 3 9 15 24 35 44 52 56 63 65 67 64 64 65 64 64
127 123 135 136 136 123 133 131 128 124 121 110 94 83 79 73 65 57 50 42 34 29 25 19 13 8 4 3 9 16 24 34 46 57 64 67 68 62 66 66 67 62 64 59
128 129 138 134 129 137 133 134 128 123 111 98 93 82 76 66 58 49 41 34 30 24 18 13 9 6 6 8 14 23 33 45 58 63 69 66 62 68 63 63 65 63 63 61
129 135 139 137 140 147 135 132 128 119 108 100 89 79 70 60 51 41 35 29 22 16 12 8 6 8 9 13 21 29 40 51 61 71 68 65 68 67 67 65 63 62 60 59
129 136 144 136 151 149 140 133 124 115 102 100 86 74 62 53 42 34 28 21 15 12 7 6 9 11 15 21 28 35 46 54 63 69 69 70 68 71 69 65 63 61 55 55
133 141 142 145 148 155 140 122 116 107 102 93 80 65 54 45 34 28 21 16 12 8 7 10 13 17 22 29 35 46 56 60 62 72 70 74 75 71 70 65 64 60 58 54
134 144 147 150 150 147 138 122 112 105 103 87 71 57 47 36 28 21 16 14 10 7 9 14 19 24 28 37 47 56 60 64 64 75 71 78 70 68 66 62 61 60 56 53
132 145 145 161 146 140 126 119 111 102 94 78 61 49 38 29 22 16 13 11 8 11 16 20 25 31 39 48 57 64 65 64 75 75 81 69 70 67 64 60 58 56 57 53
Wind_Direction
306 304 304 305 304 302 300 299 299 299 298 296 294 292 290 291 290 287 286 288 288 288 288 287 285 283 283 282 282 282 282 281 281 281 279 278 276 273 270 269 268 269 268 267
309 307 305 303 299 299 300 302 302 302 300 301 297 293 291 287 286 287 287 286 286 285 286 285 283 282 281 281 282 282 282 280 281 283 281 279 276 272 273 271 269 266 267 265
309 309 306 306 304 304 305 305 305 303 301 301 296 291 288 286 285 285 285 285 284 284 283 283 282 282 284 282 281 282 280 278 279 279 277 276 277 274 271 270 267 265 261 259
310 312 312 312 309 310 309 306 305 302 300 296 293 291 289 289 289 288 288 287 285 283 283 285 285 287 286 287 288 285 282 280 278 276 274 273 274 269 268 266 266 263 259 255
310 310 309 307 309 305 303 303 305 306 306 302 294 292 293 294 294 292 293 291 291 293 293 292 294 294 290 288 282 284 284 281 278 279 273 270 268 264 264 263 262 263 262 257
319 315 312 310 308 306 304 304 307 309 310 307 303 301 300 297 296 295 295 296 296 296 297 299 296 292 289 288 289 288 284 284 280 278 275 271 268 263 261 261 261 259 259 257
312 313 314 315 317 316 312 307 303 303 304 310 304 303 297 296 295 295 294 294 294 300 303 298 294 291 291 292 289 288 286 285 283 280 277 273 270 268 265 262 260 259 259 258
323 317 313 310 313 314 314 311 305 303 302 301 299 296 293 293 291 291 295 300 306 307 303 297 296 296 293 288 287 286 284 282 280 278 276 274 271 269 266 263 262 260 259 257
332 327 321 321 320 313 311 313 307 304 303 302 301 305 311 309 307 302 304 308 310 309 305 304 302 299 295 293 290 287 284 281 279 277 275 272 269 266 264 261 260 258 256 256
340 336 334 328 322 324 323 319 320 318 314 309 308 317 313 311 306 309 312 312 310 307 304 299 295 295 295 294 293 290 287 282 279 276 274 270 267 263 259 259 257 255 254 254
342 342 340 339 334 328 331 333 332 329 327 323 317 322 315 316 316 316 315 312 311 308 303 303 302 299 297 298 296 292 287 282 279 278 274 270 267 262 258 253 250 248 247 245
347 341 344 341 332 333 338 336 333 328 328 326 321 322 321 322 319 317 316 315 312 310 311 310 305 303 303 300 295 293 289 286 283 278 274 271 263 256 250 243 238 233 231 228
342 342 343 338 337 340 336 335 331 327 325 328 325 323 321 322 321 318 317 314 312 314 317 310 308 307 305 304 302 302 294 288 285 277 274 267 255 239 228 219 214 210 209 210
344 344 341 332 342 337 335 335 325 325 330 329 327 324 324 326 323 318 319 318 316 318 317 312 312 312 309 307 307 302 295 289 280 275 265 252 220 202 191 184 183 183 184 185
346 343 336 335 341 338 334 335 331 327 331 329 327 328 327 328 324 322 322 321 320 321 317 316 318 314 312 312 308 302 300 293 276 255 220 187 177 162 158 159 158 156 156 152
343 338 339 342 339 335 336 334 332 331 329 329 328 327 327 328 326 327 326 322 322 320 320 323 320 317 318 317 307 306 301 274 224 165 152 158 147 141 144 145 145 140 137 136
344 338 342 342 338 335 335 333 330 330 329 329 330 329 328 330 329 329 325 322 322 323 323 324 323 324 323 312 312 305 231 186 161 136 137 145 136 136 137 135 133 133 133 134
341 339 342 340 336 336 333 332 329 331 330 332 332 332 331 332 332 330 324 322 325 324 326 328 328 326 318 321 307 173 156 153 139 127 137 138 136 135 134 134 135 135 136 134
340 340 340 340 337 334 333 330 332 331 331 333 332 333 333 333 332 330 326 326 325 325 330 332 333 330 330 358 157 139 148 142 127 135 140 140 137 136 137 138 138 137 135 132
340 337 339 338 340 333 333 334 331 331 333 334 336 337 336 333 332 331 329 328 331 333 335 342 346 346 24 112 136 142 144 134 133 141 141 140 140 141 138 137 141 133 123 124
339 336 338 336 337 332 336 335 331 335 336 336 337 339 336 333 333 332 332 336 336 339 347 353 3 45 96 131 138 143 142 135 142 144 145 144 141 138 138 131 125 127 128 131
336 335 336 337 337 334 336 334 332 335 337 340 339 338 336 334 334 334 340 341 341 352 3 16 61 97 120 129 137 143 141 139 146 143 147 143 138 135 126 128 128 133 138 140
333 335 337 339 337 335 336 332 333 337 339 340 337 336 336 335 336 344 343 340 356 11 23 66 94 111 122 128 136 141 137 144 147 147 144 141 135 128 132 136 136 139 138 135
331 332 336 337 336 337 332 332 334 338 343 338 335 336 337 335 342 346 341 355 10 22 52 89 106 118 126 130 137 137 138 148 147 146 143 134 133 135 138 139 142 136 135 134
328 331 334 337 335 333 333 334 337 337 341 335 334 336 337 339 347 347 355 8 20 43 82 99 114 124 129 134 135 136 143 147 142 146 142 137 141 143 141 142 141 134 136 139
326 330 332 334 331 332 332 334 338 339 337 332 333 336 338 345 348 359 9 22 48 82 102 116 122 128 131 136 136 138 145 144 143 145 139 145 147 141 141 140 140 143 142 143